This demonstration page uses our WeatherBlox Daily Observations layout. Learn more.

Left ArrowRight Arrow

38.20091, -84.87328

Hourly Observations for September 1, 2016

Temp ( °F °C ) Dew Point ( °F °C ) Humidity (%) Winds ( mph kmh ) Pressure ( in mb ) Visibility ( mi km ) Precip ( " mm )
12:03 am 00:03 Mostly Cloudy with Mist and Fog 72 22.2 70 21.1 94 94 Calm 29.94 1014 1 1 0.00 0.00
12:40 am 00:40 Mostly Cloudy with Mist and Fog 71 21.7 69 20.6 94 94 Calm 29.94 1014 1 2 0.00 0.00
12:46 am 00:46 Mostly Cloudy with Mist and Fog 71 21.7 69 20.6 94 94 Calm 29.94 1014 3 5 0.00 0.00
12:53 am 00:53 Partly Cloudy with Mist and Fog 71 21.7 69 20.6 94 94 NNW 3 6 29.93 1014 4 6 0.00 0.00
1:53 am 01:53 Clear 72 22.2 69 20.6 91 91 Calm 29.93 1014 8 13 0.00 0.00
2:53 am 02:53 Clear 72 22.2 69 20.6 91 91 NNW 5 7 29.93 1014 9 14 0.00 0.00
3:53 am 03:53 Clear 72 22.2 69 20.6 91 91 NNW 5 7 29.93 1014 8 13 0.00 0.00
4:11 am 04:11 Mostly Clear 72 22.2 69 20.6 91 91 NNW 5 7 29.94 1014 8 13 0.00 0.00
4:53 am 04:53 Partly Cloudy 72 22.2 69 20.6 91 91 N 7 11 29.93 1013 8 13 0.00 0.00
5:09 am 05:09 Partly Cloudy 72 22.2 68 20 87 87 N 5 7 29.91 1013 8 13 0.00 0.00
5:51 am 05:51 Mostly Cloudy 72 22 68 20 88 88 VRB 5 7 29.94 1014 7 11 0.00 0.00
5:53 am 05:53 Mostly Cloudy 72 22.2 68 20 87 87 N 6 9 29.93 1014 7 11 0.00 0.00
6:53 am 06:53 Cloudy with Mist and Fog 72 22.2 68 20 87 87 N 8 13 29.95 1014 6 10 0.00 0.00
7:53 am 07:53 Cloudy with Mist and Fog 72 22.2 68 20 87 87 N 6 9 29.97 1015 5 8 0.00 0.00
8:53 am 08:53 Cloudy with Haze 72 22.2 67 19.4 84 84 N 8 13 29.98 1015 6 10 0.00 0.00
9:12 am 09:12 Cloudy 72 22.2 67 19.4 84 84 NNE 7 11 29.97 1015 8 13 0.00 0.00
9:53 am 09:53 Cloudy 72 22.2 66 18.9 82 82 N 7 11 30.00 1016 10 16 0.00 0.00
10:15 am 10:15 Cloudy 73 22.8 65 18.3 76 76 NNE 10 17 30.00 1016 10 16 0.00 0.00
10:28 am 10:28 Cloudy 73 22.8 63 17.2 71 71 NNE 12 19 30.00 1016 10 16 0.00 0.00
10:53 am 10:53 Cloudy 73 22.8 62 16.7 69 69 NE 7 11 30.02 1017 10 16 0.00 0.00
11:53 am 11:53 Mostly Cloudy 74 23.3 60 15.6 62 62 NNE 8 13 30.02 1017 10 16 0.00 0.00
12:53 pm 12:53 Mostly Cloudy 79 26.1 58 14.4 49 49 NNE 8 13 30.01 1016 10 16 0.00 0.00
1:53 pm 13:53 Partly Cloudy 79 26.1 58 14.4 49 49 NE 9 15 30.01 1016 10 16 0.00 0.00
2:53 pm 14:53 Sunny 80 26.7 57 13.9 45 45 NNE 8 13 30.00 1016 10 16 0.00 0.00
3:53 pm 15:53 Mostly Cloudy 80 26.7 57 13.9 45 45 NNE 9 15 29.99 1016 10 16 0.00 0.00
4:53 pm 16:53 Partly Cloudy 80 26.7 57 13.9 45 45 N 8 13 30.00 1016 10 16 0.00 0.00
5:53 pm 17:53 Mostly Cloudy 78 25.6 56 13.3 47 47 N 7 11 30.00 1016 10 16 0.00 0.00
6:53 pm 18:53 Sunny 78 25.6 56 13.3 47 47 VRB 7 11 30.01 1016 10 16 0.00 0.00
7:53 pm 19:53 Sunny 75 23.9 56 13.3 52 52 N 6 9 30.01 1016 10 16 0.00 0.00
8:53 pm 20:53 Clear 71 21.7 57 13.9 61 61 N 5 7 30.04 1017 10 16 0.00 0.00
9:53 pm 21:53 Clear 69 20.6 57 13.9 66 66 N 6 9 30.04 1017 10 16 0.00 0.00
10:53 pm 22:53 Clear 68 20 56 13.3 65 65 N 5 7 30.05 1018 10 16 0.00 0.00
11:53 pm 23:53 Clear 67 19.4 55 12.8 66 66 N 5 7 30.04 1017 10 16 0.00 0.00

Powered by AerisWeather